This demonstration page uses our WeatherBlox Daily Observations layout. Learn more.

Left ArrowRight Arrow

39.92423, -83.80882

Hourly Observations for December 19, 2015

Temp ( °F °C ) Dew Point ( °F °C ) Humidity (%) Winds ( mph kmh ) Pressure ( in mb ) Visibility ( mi km ) Precip ( " mm )
12:56 am 00:56 Clear 29 -1.6 17 -8.3 61 61 SW 13 20 30.16 1021 10 16.0934 0 0
1:56 am 01:56 Mostly Cloudy 29 -1.6 17 -8.3 61 61 SW 12 19 30.16 1021 10 16.0934 0 0
2:56 am 02:56 Mostly Cloudy 28 -2.2 17 -8.3 63 63 SW 12 19 30.17 1022 10 16.0934 0 0
3:56 am 03:56 Cloudy 29 -1.6 18 -7.7 64 64 SW 13 20 30.18 1022 10 16.0934 0 0
4:56 am 04:56 Mostly Cloudy 27 -2.7 19 -7.2 71 71 SW 12 19 30.19 1022 10 16.0934 0 0
5:56 am 05:56 Partly Cloudy 27 -2.7 19 -7.2 71 71 WSW 12 19 30.22 1023 10 16.0934 0 0
6:56 am 06:56 Clear 26 -3.3 16 -8.8 66 66 W 12 19 30.26 1025 10 16.0934 0 0
7:56 am 07:56 Sunny 24 -4.4 14 -10 65 65 W 16 26 30.3 1026 10 16.0934 0 0
8:56 am 08:56 Sunny 25 -3.8 15 -9.4 65 65 W 13 20 30.33 1027 10 16.0934 0 0
9:56 am 09:56 Sunny 26 -3.3 15 -9.4 63 63 W 14 22 30.38 1029 10 16.0934 0 0
10:56 am 10:56 Sunny 28 -2.2 15 -9.4 58 58 W 14 22 30.41 1030 10 16.0934 0 0
11:56 am 11:56 Sunny 29 -1.6 12 -11.1 49 49 W 16 26 30.41 1030 10 16.0934 0 0
12:56 pm 12:56 Sunny 31 -0.5 10 -12.2 41 41 W 15 24 30.41 1030 10 16.0934 0 0
1:56 pm 13:56 Sunny 32 0 9 -12.7 38 38 WSW 18 30 30.41 1030 10 16.0934 0 0
2:56 pm 14:56 Sunny 33 0.5 10 -12.2 38 38 WSW 17 28 30.42 1030 10 16.0934 0 0
3:56 pm 15:56 Sunny 33 0.5 12 -11.1 42 42 WSW 14 22 30.44 1031 10 16.0934 0 0
4:56 pm 16:56 Sunny 30 -1.1 12 -11.1 47 47 W 9 15 30.46 1032 10 16.0934 0 0
5:56 pm 17:56 Clear 26 -3.3 13 -10.5 58 58 WSW 8 13 30.48 1032 10 16.0934 0 0
6:56 pm 18:56 Clear 25 -3.8 14 -10 62 62 WSW 7 11 30.5 1033 10 16.0934 0 0
7:56 pm 19:56 Clear 23 -5 13 -10.5 66 66 SW 6 9 30.52 1034 10 16.0934 0 0
8:56 pm 20:56 Clear 25 -3.8 13 -10.5 60 60 Calm 30.52 1033 10 16.0934 0 0
9:56 pm 21:56 Clear 23 -5 14 -10 68 68 Calm 30.52 1034 10 16.0934 0 0
10:56 pm 22:56 Clear 21 -6.1 14 -10 74 74 Calm 30.53 1034 10 16.0934 0 0
11:56 pm 23:56 Clear 23 -5 14 -10 68 68 S 5 7 30.53 1034 10 16.0934 0 0

Powered by AerisWeather